Weather History for Eagle, CO

Change the Weather History Date:

Tuesday, December 24, 2013

  Actual Average Record
Temperature  
Mean Temperature 22 °F -  
Max Temperature 35 °F 29 °F 53 °F (1955)
Min Temperature 6 °F 2 °F -29 °F (1990)
Degree Days  
Heating Degree Days 44    
Moisture  
Dew Point 21 °F    
Average Humidity 81    
Maximum Humidity 93    
Minimum Humidity 51    
Precipitation  
Precipitation 0.00 in - - ()
Sea Level Pressure  
Sea Level Pressure 30.32 in    
Wind  
Wind Speed 5 mph (East)    
Max Wind Speed 22 mph    
Max Gust Speed 29 mph    
Visibility 9 miles    
Events Snow    
Averages and records for this station are not official NWS values.
T = Trace of Precipitation, MM = Missing Value Source: NWS Daily Summary

Daily Weather History Graph

Daily Weather History Graph

Search for Another Location

Airport:

Trip Planner

Search our weather history database for the weather conditions in past years. The results will help you decide how hot, cold, wet, or windy it might be!

Date:

Astronomy

Dec. 24, 2013 Rise Set
Actual Time 7:26 AM MST 4:48 PM MST
Civil Twilight 6:56 AM MST 5:18 PM MST
Nautical Twilight 6:22 AM MST 5:52 PM MST
Astronomical Twilight 5:49 AM MST 6:25 PM MST
Moon 11:58 PM MST (12/24) 11:23 AM MST (12/24)
Length of Visible Light 10h 22m
Length of Day
9h 22m
Waning Gibbous, 58% of the Moon is Illuminated
Dec 24
Waning Gibbous
Dec 25
Last Quarter
Jan 1
New
Jan 7
First Quarter
Jan 15
Full

Hourly Weather History & Observations

Time (MST) Temp. Windchill Dew Point Humidity Pressure Visibility Wind Dir Wind Speed Gust Speed Precip Events Conditions
12:15 AM 26.6 °F - 23.0 °F 86% 30.36 in 10.0 mi Calm Calm - N/A   Overcast
12:35 AM 26.6 °F 19.1 °F 21.2 °F 80% 30.35 in 10.0 mi ENE 6.9 mph - N/A   Mostly Cloudy
12:55 AM 26.6 °F 18.2 °F 21.2 °F 80% 30.35 in 10.0 mi East 8.1 mph - N/A   Overcast
1:15 AM 26.6 °F 22.6 °F 23.0 °F 86% 30.35 in 10.0 mi ESE 3.5 mph - N/A   Overcast
1:35 AM 28.4 °F - 23.0 °F 80% 30.34 in 10.0 mi Calm Calm - N/A   Overcast
1:55 AM 28.4 °F 23.3 °F 21.2 °F 74% 30.34 in 10.0 mi ESE 4.6 mph - N/A   Overcast
2:15 AM 26.6 °F 20.0 °F 23.0 °F 86% 30.35 in 10.0 mi East 5.8 mph - N/A   Overcast
2:35 AM 26.6 °F 20.0 °F 23.0 °F 86% 30.34 in 10.0 mi East 5.8 mph - N/A   Overcast
2:55 AM 30.2 °F 24.3 °F 23.0 °F 75% 30.34 in 10.0 mi ENE 5.8 mph - N/A   Overcast
3:15 AM 28.4 °F 21.2 °F 23.0 °F 80% 30.33 in 10.0 mi ENE 6.9 mph - N/A   Overcast
3:35 AM 28.4 °F 22.2 °F 23.0 °F 80% 30.32 in 10.0 mi East 5.8 mph - N/A   Mostly Cloudy
3:55 AM 28.4 °F 21.2 °F 23.0 °F 80% 30.31 in 10.0 mi ENE 6.9 mph - N/A   Overcast
4:15 AM 28.4 °F 20.4 °F 23.0 °F 80% 30.30 in 10.0 mi ENE 8.1 mph - N/A   Overcast
4:35 AM 28.4 °F 22.2 °F 24.8 °F 86% 30.29 in 10.0 mi East 5.8 mph - N/A   Overcast
4:55 AM 28.4 °F 22.2 °F 24.8 °F 86% 30.29 in 10.0 mi ENE 5.8 mph - N/A   Overcast
5:15 AM 28.4 °F 20.4 °F 24.8 °F 86% 30.28 in 10.0 mi East 8.1 mph - N/A   Overcast
5:35 AM 28.4 °F 22.2 °F 24.8 °F 86% 30.27 in 10.0 mi ESE 5.8 mph - N/A   Overcast
5:55 AM 28.4 °F 22.2 °F 24.8 °F 86% 30.27 in 10.0 mi ENE 5.8 mph - N/A   Overcast
6:15 AM 30.2 °F 24.3 °F 24.8 °F 80% 30.27 in 10.0 mi East 5.8 mph - N/A   Overcast
6:35 AM 30.2 °F 26.7 °F 24.8 °F 80% 30.26 in 10.0 mi ENE 3.5 mph - N/A   Overcast
6:50 AM 30.2 °F - 24.8 °F 80% 30.26 in 10.0 mi Calm Calm - N/A   Overcast
7:55 AM 30.2 °F - 24.8 °F 80% 30.24 in 10.0 mi Calm Calm - N/A   Overcast
8:50 AM 33.8 °F 27.7 °F 24.8 °F 70% 30.22 in 10.0 mi SW 6.9 mph - N/A   Mostly Cloudy
9:50 AM 32.0 °F - 24.8 °F 75% 30.22 in 10.0 mi Calm Calm - N/A   Mostly Cloudy
10:50 AM 35.6 °F 28.0 °F 24.8 °F 65% 30.21 in 10.0 mi SSW 10.4 mph - N/A   Mostly Cloudy
11:50 AM 35.6 °F 24.2 °F 26.6 °F 70% 30.19 in 10.0 mi SW 21.9 mph 28.8 mph N/A   Mostly Cloudy
12:10 PM 33.8 °F 21.9 °F 26.6 °F 75% 30.21 in 1.0 mi WSW 21.9 mph 28.8 mph N/A Snow Light Snow
12:50 PM 30.2 °F 22.6 °F 28.4 °F 93% 30.24 in 2.0 mi WSW 8.1 mph - N/A Snow Light Snow
1:03 PM 30.2 °F 26.7 °F 28.4 °F 93% 30.24 in 3.0 mi SW 3.5 mph - N/A Snow Light Snow
1:50 PM 32.0 °F 24.8 °F 28.4 °F 87% 30.27 in 1.5 mi NW 8.1 mph - N/A Snow Light Snow
2:50 PM 30.2 °F 21.9 °F 26.6 °F 86% 30.28 in 10.0 mi South 9.2 mph - N/A   Mostly Cloudy
3:50 PM 30.2 °F 24.3 °F 21.2 °F 69% 30.31 in 10.0 mi West 5.8 mph - N/A   Mostly Cloudy
4:50 PM 30.2 °F - 14.0 °F 51% 30.34 in 10.0 mi Calm Calm - N/A   Partly Cloudy
5:50 PM 24.8 °F 17.9 °F 12.2 °F 59% 30.36 in 10.0 mi Variable 5.8 mph - N/A   Scattered Clouds
6:50 PM 19.4 °F 11.5 °F 15.8 °F 86% 30.39 in 10.0 mi Variable 5.8 mph - N/A   Clear
7:50 PM 15.8 °F 6.1 °F 12.2 °F 86% 30.41 in 10.0 mi Variable 6.9 mph - N/A   Clear
8:50 PM 12.2 °F 4.3 °F 8.6 °F 85% 30.43 in 10.0 mi Variable 4.6 mph - N/A   Clear
9:50 PM 10.4 °F 2.2 °F 8.6 °F 92% 30.44 in 10.0 mi Variable 4.6 mph - N/A   Clear
10:50 PM 8.6 °F -1.3 °F 6.8 °F 92% 30.46 in 10.0 mi Variable 5.8 mph - N/A   Scattered Clouds
11:15 PM 8.6 °F 2.0 °F 6.8 °F 92% 30.47 in 10.0 mi ENE 3.5 mph - N/A   Overcast
11:35 PM 8.6 °F - 6.8 °F 92% 30.47 in 10.0 mi Calm Calm - N/A   Scattered Clouds
11:55 PM 6.8 °F -2.0 °F 3.2 °F 85% 30.47 in 10.0 mi East 4.6 mph - N/A   Clear